Weather in Kupiškis

Lithuania     55°49′57″N   24°59′23″E
temp.,
°C
wind,
m/s
gust,
m/s
humid.,
%
clouds,
%
prec.,
mm/h
press.,
hPa
HPBL,
m
28 july, wed
wed2800:00+18s3696100 0.0 1011126
03:00+17ssw3597100 0.0 1011116
06:00+16wsw249719 0.0 101182
09:00+20wsw34843 0.0 1011330
12:00+25wsw345858 0.0 10111103
15:00+28wsw454735 0.0 10101846
18:00+27wsw464951 0.0 10091644
21:00+22wsw34695 0.0 100986
29 july, thu
thu2900:00+19s127776 0.0 100911
03:00+19s3772100 0.0 1008184
06:00+17sw3890100 0.1 1008262
09:00+20wsw368434 0.1 1008547
12:00+24w46566 0.0 10081394
15:00+26w574543 0.0 10072142
18:00+23w4862100 0.0 1007751
21:00+20wsw38691 0.0 1007287
30 july, fri
fri3000:00+18wsw49755 0.0 1008304
03:00+14sw38892 0.0 1008178
06:00+13sw310925 0.0 1007219
09:00+19sw6106233 0.1 10071220
12:00+22wsw812436 0.1 10062356
15:00+23sw8124367 0.1 10052737
18:00+21sw71150100 0.0 10041980
21:00+17wsw38589 0.0 1004240
31 july, sat
sat3100:00+16sw616605 0.0 1004829
03:00+16wsw715695 0.0 1004703
06:00+14sw5137951 0.0 1005466
09:00+18sw61069100 0.0 1005609
12:00+22sw6847100 0.0 10051257
15:00+24sw5744100 0.0 10041470
18:00+24ssw5955100 0.0 10031278
21:00+17ssw41195100 1.9 1003429
1 august, sun
sun100:00+16sw3698100 0.5 1004138
03:00+14sw37940 0.6 1004128
06:00+13sw412950 0.0 1004313
09:00+17sw612820 0.0 1005601
12:00+19wsw697697 0.5 10061128
15:00+21sw6863100 0.8 10071161
18:00+21wsw4761100 0.1 10071172
21:00+17wsw2277100 0.2 100722